Change the Weather History Date:

Tuesday, August 19, 2014

  Actual Average Record
Temperature  
Mean Temperature 68 °F -  
Max Temperature 78 °F 81 °F 96 °F (2011)
Min Temperature 59 °F 56 °F 37 °F (2004)
Cooling Degree Days 4    
Growing Degree Days 18 (Base 50)    
Moisture  
Dew Point 61 °F    
Average Humidity 81    
Maximum Humidity 98    
Minimum Humidity 53    
Precipitation  
Precipitation 0.00 in - - ()
Sea Level Pressure  
Sea Level Pressure 29.72 in    
Wind  
Wind Speed 3 mph (WNW)    
Max Wind Speed 12 mph    
Max Gust Speed 17 mph    
Visibility 9 miles    
Events Fog , Rain    
Averages and records for this station are not official NWS values.
T = Trace of Precipitation, MM = Missing Value Source: NWS Daily Summary

Daily Weather History Graph

Daily Weather History Graph

Search for Another Location

Airport or City:

Trip Planner

Search our weather history database for the weather conditions in past years. The results will help you decide how hot, cold, wet, or windy it might be!

Date:

Astronomy

Aug. 19, 2014 Rise Set
Actual Time 6:11 AM CDT 8:00 PM CDT
Civil Twilight 5:40 AM CDT 8:31 PM CDT
Nautical Twilight 5:02 AM CDT 9:09 PM CDT
Astronomical Twilight 4:22 AM CDT 9:49 PM CDT
Moon 1:00 AM CDT (8/19) 4:01 PM CDT (8/19)
Length of Visible Light 14h 50m
Length of Day
13h 49m
Waning Crescent, 29% of the Moon is Illuminated
Aug 19
Waning Crescent
Aug 25
New
Sep 2
First Quarter
Sep 8
Full
Sep 15
Last Quarter

Hourly Weather History & Observations

Time (CDT) Temp. Dew Point Humidity Pressure Visibility Wind Dir Wind Speed Gust Speed Precip Events Conditions
12:15 AM 63.9 °F 62.8 °F 96% 29.69 in 10.0 mi ESE 6.9 mph - N/A Rain Light Rain
12:35 AM 63.9 °F 62.8 °F 96% 29.69 in 10.0 mi Calm Calm - N/A   Scattered Clouds
12:55 AM 64.0 °F 63.0 °F 96% 29.70 in 10.0 mi Calm Calm - N/A   Overcast
1:15 AM 63.9 °F 62.8 °F 96% 29.69 in 10.0 mi Calm Calm - N/A   Mostly Cloudy
1:35 AM 63.7 °F 62.8 °F 97% 29.69 in 10.0 mi Calm Calm - N/A   Clear
1:55 AM 62.8 °F 61.9 °F 97% 29.68 in 7.0 mi Calm Calm - N/A   Clear
2:15 AM 62.2 °F 61.3 °F 97% 29.67 in 7.0 mi Calm Calm - N/A   Clear
2:35 AM 61.3 °F 60.6 °F 97% 29.67 in - Calm Calm - N/A   Unknown
2:55 AM 61.9 °F 61.2 °F 97% 29.67 in - Calm Calm - N/A   Mostly Cloudy
3:15 AM 60.8 °F 60.1 °F 97% 29.66 in 0.8 mi Calm Calm - N/A   Overcast
3:35 AM 60.8 °F 60.3 °F 98% 29.66 in 0.8 mi Calm Calm - N/A   Overcast
3:55 AM 60.4 °F 59.9 °F 98% 29.66 in 0.5 mi Calm Calm - N/A Fog Fog
4:15 AM 59.9 °F 59.4 °F 98% 29.66 in 0.5 mi Calm Calm - N/A Fog Fog
4:35 AM 59.9 °F 59.4 °F 98% 29.67 in - Calm Calm - N/A   Overcast
4:55 AM 60.1 °F 59.5 °F 98% 29.67 in - Calm Calm - N/A   Overcast
5:15 AM 59.5 °F 59.0 °F 98% 29.67 in 1.0 mi Calm Calm - N/A   Mostly Cloudy
5:35 AM 60.8 °F 60.3 °F 98% 29.67 in 5.0 mi WSW 3.5 mph - N/A   Clear
5:55 AM 61.0 °F 60.3 °F 97% 29.67 in 7.0 mi Calm Calm - N/A   Clear
6:15 AM 59.2 °F 58.6 °F 98% 29.66 in 7.0 mi Calm Calm - N/A   Clear
6:35 AM 59.2 °F 58.6 °F 98% 29.67 in 10.0 mi Calm Calm - N/A   Clear
6:55 AM 59.4 °F 58.8 °F 98% 29.67 in 5.0 mi Calm Calm - N/A   Scattered Clouds
7:15 AM 60.6 °F 60.1 °F 98% 29.68 in 10.0 mi Calm Calm - N/A   Mostly Cloudy
7:35 AM 62.2 °F 61.7 °F 98% 29.68 in 10.0 mi Calm Calm - N/A   Overcast
7:55 AM 64.4 °F 63.9 °F 98% 29.69 in 10.0 mi Calm Calm - N/A   Overcast
8:15 AM 64.9 °F 64.4 °F 98% 29.70 in 7.0 mi NW 4.6 mph - N/A   Overcast
8:35 AM 65.3 °F 64.8 °F 98% 29.71 in 10.0 mi WNW 6.9 mph - N/A   Overcast
8:55 AM 66.4 °F 63.5 °F 90% 29.72 in 10.0 mi NW 6.9 mph - N/A   Mostly Cloudy
9:15 AM 67.6 °F 63.3 °F 86% 29.73 in 10.0 mi NW 6.9 mph - N/A   Mostly Cloudy
9:35 AM 68.7 °F 62.6 °F 81% 29.73 in 10.0 mi West 6.9 mph - N/A   Mostly Cloudy
9:55 AM 70.3 °F 62.1 °F 75% 29.73 in 10.0 mi WNW 8.1 mph - N/A   Mostly Cloudy
10:15 AM 71.6 °F 62.2 °F 72% 29.73 in 10.0 mi NW 8.1 mph - N/A   Mostly Cloudy
10:35 AM 71.6 °F 62.6 °F 73% 29.73 in 10.0 mi WNW 5.8 mph - N/A   Mostly Cloudy
10:55 AM 73.0 °F 62.1 °F 68% 29.73 in 10.0 mi NW 6.9 mph - N/A   Mostly Cloudy
11:15 AM 73.2 °F 62.2 °F 68% 29.73 in 10.0 mi WNW 6.9 mph - N/A   Mostly Cloudy
11:35 AM 74.5 °F 62.1 °F 65% 29.73 in 10.0 mi WNW 9.2 mph - N/A   Overcast
11:55 AM 74.3 °F 61.3 °F 64% 29.73 in 10.0 mi WNW 10.4 mph 16.1 mph N/A   Mostly Cloudy
12:15 PM 75.2 °F 61.5 °F 62% 29.73 in 10.0 mi West 8.1 mph - N/A   Mostly Cloudy
12:35 PM 74.1 °F 62.1 °F 66% 29.74 in 10.0 mi NNW 9.2 mph - N/A   Overcast
12:55 PM 74.1 °F 61.9 °F 65% 29.74 in 10.0 mi WNW 8.1 mph - N/A   Overcast
1:15 PM 75.7 °F 61.0 °F 60% 29.74 in 10.0 mi NW 11.5 mph 17.3 mph N/A   Overcast
1:35 PM 76.1 °F 59.9 °F 57% 29.74 in 10.0 mi West 11.5 mph - N/A   Overcast
1:55 PM 75.7 °F 60.3 °F 59% 29.74 in 10.0 mi WNW 9.2 mph - N/A   Overcast
2:15 PM 75.2 °F 60.3 °F 60% 29.74 in 10.0 mi West 10.4 mph - N/A   Overcast
2:35 PM 75.6 °F 60.3 °F 59% 29.74 in 10.0 mi WNW 10.4 mph - N/A   Overcast
2:55 PM 76.5 °F 61.0 °F 59% 29.74 in 10.0 mi WNW 9.2 mph - N/A   Overcast
3:15 PM 75.4 °F 60.8 °F 60% 29.74 in 10.0 mi WNW 10.4 mph - N/A   Mostly Cloudy
3:35 PM 77.5 °F 60.6 °F 56% 29.73 in 10.0 mi WNW 8.1 mph - N/A   Scattered Clouds
4:35 PM 77.9 °F 60.6 °F 55% 29.73 in 10.0 mi NW 8.1 mph - N/A   Mostly Cloudy
4:55 PM 78.3 °F 59.9 °F 53% 29.74 in 10.0 mi West 6.9 mph - N/A   Scattered Clouds
5:15 PM 77.9 °F 59.5 °F 53% 29.74 in 10.0 mi West 10.4 mph - N/A   Scattered Clouds
5:35 PM 77.2 °F 59.2 °F 54% 29.74 in 10.0 mi WNW 11.5 mph - N/A   Scattered Clouds
5:55 PM 76.8 °F 59.7 °F 55% 29.75 in 10.0 mi West 6.9 mph - N/A   Clear
6:15 PM 77.0 °F 59.9 °F 55% 29.75 in 10.0 mi West 9.2 mph - N/A   Scattered Clouds
6:35 PM 75.6 °F 60.3 °F 59% 29.75 in 10.0 mi WNW 4.6 mph - N/A   Clear
6:55 PM 75.6 °F 61.5 °F 62% 29.75 in 10.0 mi WNW 3.5 mph - N/A   Scattered Clouds
7:15 PM 74.7 °F 61.7 °F 64% 29.75 in 10.0 mi WNW 3.5 mph - N/A   Clear
7:35 PM 73.4 °F 62.2 °F 68% 29.75 in 10.0 mi Calm Calm - N/A   Clear
7:55 PM 72.1 °F 62.4 °F 71% 29.75 in 10.0 mi Calm Calm - N/A   Clear
8:15 PM 69.1 °F 62.4 °F 79% 29.76 in 10.0 mi Calm Calm - N/A   Clear
8:35 PM 67.3 °F 63.0 °F 86% 29.77 in 10.0 mi Calm Calm - N/A   Clear
8:55 PM 66.0 °F 63.5 °F 92% 29.78 in 10.0 mi Calm Calm - N/A   Clear
9:15 PM 64.6 °F 62.2 °F 92% 29.78 in 10.0 mi Calm Calm - N/A   Clear
9:35 PM 63.9 °F 62.1 °F 94% 29.78 in 10.0 mi Calm Calm - N/A   Scattered Clouds
9:55 PM 63.5 °F 61.9 °F 94% 29.79 in 10.0 mi Calm Calm - N/A   Scattered Clouds
10:15 PM 63.5 °F 61.9 °F 94% 29.79 in 10.0 mi Calm Calm - N/A   Scattered Clouds
10:35 PM 63.5 °F 62.1 °F 95% 29.79 in 10.0 mi Calm Calm - N/A   Clear
10:55 PM 63.1 °F 61.7 °F 95% 29.79 in 10.0 mi Calm Calm - N/A   Clear
11:15 PM 63.0 °F 61.7 °F 96% 29.79 in 10.0 mi Calm Calm - N/A   Clear
11:35 PM 61.7 °F 60.3 °F 95% 29.79 in 10.0 mi Calm Calm - N/A   Clear
11:55 PM 61.2 °F 59.9 °F 96% 29.80 in 10.0 mi Calm Calm - N/A   Clear